Content
SEND FEEDBACK

Daily
Averages
Monthly
Summary
United States of America

MANGILAO, GUAM


Home > North America > United States > Guam
Elevation: 60 feet     Latitude: 13 27N     Longitude: 144 49E

WEATHER
 
SELECT A DAY
Number of Records: 350,245;   Date Range: 1/1/95 - 9/30/14
 
SHARE

PRINT THIS DATA

[ ← Previous Day ]
WEATHER ALMANAC - APRIL 9, 2014
[ Next Day → ]
[ °C ]   °F
Weather ElementAverageHighLow
Temperature79.8 °F85.1 °F (10:58 am)77 °F (4:08 am)
Dewpoint73.2 °F75.2 °F (12:15 am)70.7 °F (2:58 pm)
Humidity80.5 %94 % (4:08 am)64 % (2:58 pm)
Barometer29.85 in29.90 in (10:28 am)29.78 in (3:58 pm)
Wind Speed17.1 mph23 mph (11:58 am)
Wind Gust71.3 mph (2:58 pm)
Weather ElementAverage
Visibility9.9 mi
Wind DirectionENE (74.3 °)

Weather ElementTotal
Precipitation0.01 in
Cooling Degree Days16.1 (Base 65)
Growing Degree Days31.1 (Base 50)
Averaged from 63 records on April 9, 2014
WEATHER CONDITIONS BREAKOUT
WIND DIRECTION BREAKOUT
WEATHER BY HOUR - APRIL 9, 2014
[ °C ]   °F
Local TimeTemperatureDewpointHumidityBarometerVisibilityWind DirectionWind SpeedGust SpeedPrecipitationEventsConditions
12:15 AM78.8 °F75.2 °F89 %29.88 in10.0 miENE (70°)17.3 mph23.0 mphMostly Cloudy
12:35 AM78.8 °F75.2 °F89 %29.88 in10.0 miENE (70°)15.0 mphMostly Cloudy
12:58 AM78.8 °F75.0 °F88 %29.84 in10.0 miENE (70°)16.1 mph0.00 inMostly Cloudy
1:30 AM78.8 °F73.4 °F83 %29.86 in10.0 miENE (60°)18.4 mphMostly Cloudy
1:55 AM78.8 °F73.4 °F83 %29.86 in10.0 miENE (70°)17.3 mphMostly Cloudy
1:56 AM78.8 °F73.4 °F83 %29.86 in10.0 miENE (70°)18.4 mphRainLight Rain
1:58 AM79.0 °F73.6 °F83 %29.83 in10.0 miENE (70°)17.3 mph0.00 inRainLight Rain
2:04 AM78.8 °F73.4 °F83 %29.86 in10.0 miENE (70°)17.3 mphMostly Cloudy
2:58 AM78.3 °F74.3 °F88 %29.82 in10.0 miENE (70°)16.1 mph0.00 inMostly Cloudy
3:48 AM78.8 °F75.2 °F89 %29.84 in10.0 miENE (70°)18.4 mphMostly Cloudy
3:53 AM78.8 °F73.4 °F83 %29.84 in10.0 miENE (70°)18.4 mphMostly Cloudy
3:58 AM78.8 °F73.9 °F85 %29.81 in10.0 miENE (60°)17.3 mphMostly Cloudy
4:03 AM78.8 °F75.2 °F89 %29.84 in10.0 miEast (90°)19.6 mphMostly Cloudy
4:08 AM77.0 °F75.2 °F94 %29.84 in10.0 miEast (80°)18.4 mph25.3 mphOvercast
4:14 AM77.0 °F75.2 °F94 %29.85 in10.0 miEast (80°)17.3 mph25.3 mphRainLight Rain
4:19 AM77.0 °F75.2 °F94 %29.85 in9.0 miEast (90°)12.7 mphRainLight Rain
4:24 AM77.0 °F75.2 °F94 %29.85 in9.0 miEast (80°)13.8 mphRainLight Rain
4:28 AM77.0 °F75.2 °F94 %29.85 in10.0 miEast (80°)16.1 mphOvercast
4:33 AM77.0 °F75.2 °F94 %29.84 in10.0 miENE (70°)11.5 mphMostly Cloudy
4:43 AM77.0 °F75.2 °F94 %29.84 in10.0 miEast (80°)11.5 mphMostly Cloudy
4:48 AM77.0 °F75.2 °F94 %29.85 in10.0 miEast (80°)12.7 mphMostly Cloudy
4:58 AM77.5 °F75.0 °F92 %29.82 in10.0 miENE (70°)16.1 mph0.00 inMostly Cloudy
5:03 AM77.0 °F75.2 °F94 %29.84 in10.0 miENE (70°)15.0 mphMostly Cloudy
5:07 AM77.0 °F75.2 °F94 %29.85 in9.0 miENE (70°)20.7 mphRainLight Rain
5:12 AM77.0 °F73.4 °F89 %29.85 in8.0 miENE (60°)17.3 mphRainRain
5:17 AM77.0 °F73.4 °F89 %29.85 in8.0 miENE (60°)16.1 mphRainLight Rain
5:25 AM77.0 °F73.4 °F89 %29.85 in10.0 miENE (60°)18.4 mphScattered Clouds
5:58 AM77.7 °F72.7 °F84 %29.83 in10.0 miENE (60°)18.4 mph0.01 inMostly Cloudy
6:58 AM78.6 °F73.8 °F85 %29.86 in10.0 miENE (70°)19.6 mphScattered Clouds
7:58 AM79.3 °F73.2 °F81 %29.86 in10.0 miENE (70°)19.6 mphMostly Cloudy
8:58 AM82.2 °F73.6 °F75 %29.87 in10.0 miENE (70°)20.7 mphScattered Clouds
9:58 AM83.3 °F72.1 °F69 %29.86 in10.0 miENE (70°)19.6 mph27.6 mphPartly Cloudy
10:28 AM82.4 °F73.4 °F74 %29.90 in10.0 miENE (60°)21.9 mphScattered Clouds
10:43 AM84.2 °F73.4 °F70 %29.90 in10.0 miENE (60°)19.6 mphMostly Cloudy
10:48 AM84.2 °F73.4 °F70 %29.90 in10.0 miENE (60°)19.6 mphMostly Cloudy
10:58 AM85.1 °F72.7 °F66 %29.86 in10.0 miENE (70°)20.7 mph25.3 mphScattered Clouds
11:43 AM84.2 °F73.4 °F70 %29.88 in10.0 miENE (70°)20.7 mphMostly Cloudy
11:48 AM82.4 °F73.4 °F74 %29.88 in10.0 miENE (70°)19.6 mph25.3 mphMostly Cloudy
11:58 AM82.4 °F73.4 °F74 %29.84 in10.0 miENE (70°)23.0 mph28.8 mphMostly Cloudy
12:58 PM85.1 °F73.2 °F67 %29.82 in10.0 miENE (70°)16.1 mphMostly Cloudy
1:33 PM84.2 °F73.4 °F70 %29.84 in10.0 miENE (70°)18.4 mphMostly Cloudy
1:38 PM82.4 °F73.4 °F74 %29.84 in10.0 miEast (90°)20.7 mphMostly Cloudy
1:43 PM84.2 °F71.6 °F66 %29.84 in10.0 miENE (70°)19.6 mphScattered Clouds
1:58 PM84.6 °F72.1 °F66 %29.81 in10.0 miEast (80°)20.7 mph25.3 mphScattered Clouds
2:58 PM84.0 °F70.7 °F64 %29.79 in10.0 miNNE (30°)13.8 mph71.3 mphPartly Cloudy
3:58 PM83.5 °F70.9 °F66 %29.78 in10.0 miEast (80°)18.4 mph23.0 mphClear
4:28 PM82.4 °F71.6 °F70 %29.82 in10.0 miEast (80°)18.4 mphMostly Cloudy
4:53 PM82.4 °F71.6 °F70 %29.82 in10.0 miEast (90°)19.6 mphScattered Clouds
4:58 PM82.0 °F71.1 °F69 %29.79 in10.0 miEast (90°)18.4 mphScattered Clouds
5:58 PM80.2 °F70.9 °F73 %29.81 in10.0 miEast (90°)16.1 mphPartly Cloudy
6:58 PM79.5 °F71.4 °F76 %29.83 in10.0 miEast (90°)15.0 mphPartly Cloudy
7:58 PM79.2 °F71.1 °F76 %29.84 in10.0 miEast (90°)15.0 mphScattered Clouds
8:28 PM78.8 °F71.6 °F78 %29.87 in10.0 miEast (80°)16.1 mphScattered Clouds
8:43 PM78.8 °F71.6 °F78 %29.88 in10.0 miENE (70°)16.1 mphMostly Cloudy
8:48 PM78.8 °F71.6 °F78 %29.88 in10.0 miEast (90°)17.3 mphScattered Clouds
8:58 PM79.3 °F71.1 °F76 %29.86 in10.0 miEast (80°)15.0 mphPartly Cloudy
9:53 PM78.8 °F71.6 °F78 %29.89 in10.0 miEast (80°)16.1 mphMostly Cloudy
9:58 PM79.2 °F71.1 °F76 %29.86 in10.0 miEast (80°)12.7 mphMostly Cloudy
10:58 PM79.0 °F71.6 °F78 %29.86 in10.0 miEast (90°)12.7 mphScattered Clouds
11:23 PM78.8 °F71.6 °F78 %29.89 in10.0 miENE (70°)12.7 mphMostly Cloudy
11:45 PM78.8 °F73.4 °F83 %29.89 in10.0 miEast (100°)12.7 mphRainLight Rain
11:57 PM78.8 °F71.6 °F78 %29.88 in10.0 miEast (90°)13.8 mphMostly Cloudy
11:58 PM78.8 °F71.6 °F78 %29.86 in10.0 miEast (90°)13.8 mph0.00 inMostly Cloudy
Hourly data recorded from PGUA, located miles away from Mangilao, Guam







STORIES FROM OUR PARTNERS